CW8935 Weather Reports


Display with metric or nautical units.
time (UTC)temp
F
wind
direction
speed
MPH
gust
MPH
rain 1hr
in
rain 24hr
in
rain mn
in
humidity
%
barometer
mb
20210805212653 81 138 4.0 11.0 0.00 0.00 0.00 53 1012.8
20210805212153 80 126 3.0 11.0 0.00 0.00 0.00 53 1012.7
20210805211654 80 109 3.0 10.0 0.00 0.00 0.00 54 1012.7
20210805211154 80 111 3.0 10.0 0.00 0.00 0.00 54 1012.8
20210805210652 80 140 3.0 8.0 0.00 0.00 0.00 53 1012.8
20210805210151 80 96 3.0 8.0 0.00 0.00 0.00 53 1012.8
20210805205651 80 44 3.0 9.0 0.00 0.00 0.00 54 1012.8
20210805205151 80 186 3.0 9.0 0.00 0.00 0.00 53 1012.8
20210805204651 80 167 4.0 11.0 0.00 0.00 0.00 52 1012.8
20210805204151 81 47 4.0 11.0 0.00 0.00 0.00 53 1012.9
20210805203649 81 124 3.0 10.0 0.00 0.00 0.00 53 1012.9
20210805203149 80 152 2.0 7.0 0.00 0.00 0.00 55 1012.9
20210805202647 80 85 3.0 8.0 0.00 0.00 0.00 55 1013.0
20210805202148 80 59 3.0 9.0 0.00 0.00 0.00 56 1013.0
20210805201647 79 65 3.0 9.0 0.00 0.00 0.00 55 1013.0
20210805201148 79 130 3.0 8.0 0.00 0.00 0.00 57 1013.0
20210805200648 78 140 3.0 10.0 0.00 0.00 0.00 56 1013.0
20210805200148 78 79 3.0 10.0 0.00 0.00 0.00 57 1013.0
20210805195648 78 132 3.0 10.0 0.00 0.00 0.00 58 1013.0
20210805195147 77 180 2.0 9.0 0.00 0.00 0.00 59 1013.1
20210805194648 77 117 3.0 9.0 0.00 0.00 0.00 60 1013.1
20210805194147 76 121 3.0 9.0 0.00 0.00 0.00 60 1013.2
20210805193647 76 136 3.0 8.0 0.00 0.00 0.00 61 1013.1
20210805193147 76 36 3.0 7.0 0.00 0.00 0.00 60 1013.2
20210805192647 75 69 2.0 8.0 0.00 0.00 0.00 60 1013.2
20210805192147 75 138 2.0 8.0 0.00 0.00 0.00 61 1013.2
20210805191647 74 128 2.0 7.0 0.00 0.00 0.00 63 1013.3
20210805191145 74 144 2.0 7.0 0.00 0.00 0.00 64 1013.2
20210805190645 74 94 2.0 7.0 0.00 0.00 0.00 63 1013.3
20210805190145 73 130 2.0 8.0 0.00 0.00 0.00 63 1013.2
20210805185643 73 142 2.0 8.0 0.00 0.00 0.00 64 1013.3
20210805185143 72 115 2.0 7.0 0.00 0.00 0.00 67 1013.4
20210805184644 72 155 2.0 7.0 0.00 0.00 0.00 67 1013.4
20210805184143 71 158 2.0 7.0 0.00 0.00 0.00 67 1013.4
20210805183643 71 138 1.0 7.0 0.00 0.00 0.00 67 1013.5
20210805183143 70 138 1.0 3.0 0.00 0.00 0.00 68 1013.5
20210805182641 70 138 1.0 4.0 0.00 0.00 0.00 71 1013.6
20210805182141 69 138 2.0 5.0 0.00 0.00 0.00 70 1013.5
20210805181641 69 140 2.0 5.0 0.00 0.00 0.00 71 1013.5
20210805181141 69 160 2.0 6.0 0.00 0.00 0.00 73 1013.6
20210805180641 68 26 2.0 6.0 0.00 0.00 0.00 74 1013.6
20210805180141 68 22 1.0 4.0 0.00 0.00 0.00 74 1013.6
20210805175641 67 141 1.0 3.0 0.00 0.00 0.00 73 1013.6
20210805175139 67 202 1.0 5.0 0.00 0.00 0.00 76 1013.5
20210805174639 66 169 2.0 6.0 0.00 0.00 0.00 76 1013.6
20210805174139 66 143 2.0 6.0 0.00 0.00 0.00 78 1013.6
20210805173639 65 136 1.0 7.0 0.00 0.00 0.00 80 1013.6
20210805173139 65 106 1.0 7.0 0.00 0.00 0.00 81 1013.6
20210805172637 65 165 0.0 5.0 0.00 0.00 0.00 80 1013.6
20210805172139 64 115 0.0 3.0 0.00 0.00 0.00 81 1013.6
20210805171637 64 115 1.0 3.0 0.00 0.00 0.00 81 1013.7
20210805171137 64 115 1.0 3.0 0.00 0.00 0.00 80 1013.7
20210805170637 64 117 0.0 2.0 0.00 0.00 0.00 81 1013.7
20210805170137 63 117 1.0 3.0 0.00 0.00 0.00 82 1013.7
20210805165637 63 117 0.0 3.0 0.00 0.00 0.00 82 1013.7
20210805165137 63 117 0.0 2.0 0.00 0.00 0.00 82 1013.7
20210805164637 63 117 0.0 3.0 0.00 0.00 0.00 83 1013.8
20210805164137 62 124 0.0 3.0 0.00 0.00 0.00 83 1013.8
20210805163635 62 205 0.0 3.0 0.00 0.00 0.00 84 1013.8
20210805163135 62 128 1.0 3.0 0.00 0.00 0.00 84 1013.8
20210805162635 62 355 1.0 3.0 0.00 0.00 0.00 84 1013.8
20210805162135 61 126 0.0 3.0 0.00 0.00 0.00 84 1013.8
20210805161635 61 126 1.0 3.0 0.00 0.00 0.00 84 1013.7
20210805161135 61 126 1.0 4.0 0.00 0.00 0.00 84 1013.8
20210805160635 61 126 0.0 4.0 0.00 0.00 0.00 84 1013.8
20210805160134 61 102 0.0 2.0 0.00 0.00 0.00 84 1013.8
20210805155634 60 102 0.0 2.0 0.00 0.00 0.00 84 1013.7
20210805155135 60 102 0.0 3.0 0.00 0.00 0.00 84 1013.7
20210805154635 60 102 0.0 3.0 0.00 0.00 0.00 84 1013.7
20210805154137 60 102 0.0 2.0 0.00 0.00 0.00 84 1013.6
20210805153635 60 102 0.0 3.0 0.00 0.00 0.00 84 1013.7
20210805153134 60 102 0.0 3.0 0.00 0.00 0.00 84 1013.6
20210805152634 60 102 0.0 1.0 0.00 0.00 0.00 84 1013.6
20210805152134 60 102 0.0 1.0 0.00 0.00 0.00 84 1013.6
20210805151635 60 102 0.0 1.0 0.00 0.00 0.00 84 1013.7
20210805151134 60 102 0.0 1.0 0.00 0.00 0.00 84 1013.6
20210805150635 60 102 0.0 3.0 0.00 0.00 0.00 84 1013.5
20210805150134 60 102 1.0 3.0 0.00 0.00 0.00 84 1013.5
20210805145635 60 102 0.0 3.0 0.00 0.00 0.00 85 1013.4
20210805145134 60 102 0.0 2.0 0.00 0.00 0.00 85 1013.4
20210805144634 60 102 0.0 2.0 0.00 0.00 0.00 85 1013.4
20210805144134 60 102 0.0 2.0 0.00 0.00 0.00 85 1013.4
20210805143632 60 102 0.0 3.0 0.00 0.00 0.00 85 1013.3
20210805143132 60 102 1.0 3.0 0.00 0.00 0.00 85 1013.2
20210805142632 60 102 0.0 3.0 0.00 0.00 0.00 85 1013.1
20210805142133 60 102 0.0 3.0 0.00 0.00 0.00 85 1013.1
20210805141633 60 102 0.0 3.0 0.00 0.00 0.00 85 1013.1
20210805141133 60 102 1.0 3.0 0.00 0.00 0.00 85 1013.1
20210805140632 59 102 0.0 3.0 0.00 0.00 0.00 85 1013.0
20210805140133 59 102 0.0 1.0 0.00 0.00 0.00 85 1012.9
20210805135633 59 102 0.0 0.0 0.00 0.00 0.00 85 1012.9
20210805135134 59 102 0.0 0.0 0.00 0.00 0.00 85 1012.8
20210805134633 59 102 0.0 1.0 0.00 0.00 0.00 84 1012.7
20210805134133 59 102 0.0 1.0 0.00 0.00 0.00 85 1012.7
20210805133633 59 102 0.0 1.0 0.00 0.00 0.00 84 1012.7
20210805133133 59 102 0.0 1.0 0.00 0.00 0.00 84 1012.6
20210805132633 59 102 0.0 1.0 0.00 0.00 0.00 84 1012.6
20210805132133 59 102 0.0 1.0 0.00 0.00 0.00 84 1012.7
20210805131632 59 102 0.0 0.0 0.00 0.00 0.00 84 1012.6
20210805131132 59 102 0.0 0.0 0.00 0.00 0.00 83 1012.5
20210805130632 59 102 0.0 0.0 0.00 0.00 0.00 83 1012.4
20210805130133 59 102 0.0 0.0 0.00 0.00 0.00 83 1012.4
20210805125633 59 102 0.0 0.0 0.00 0.00 0.00 83 1012.4
20210805125133 59 102 0.0 0.0 0.00 0.00 0.00 84 1012.3
20210805124633 59 102 0.0 0.0 0.00 0.00 0.00 83 1012.3
20210805124132 59 102 0.0 0.0 0.00 0.00 0.00 83 1012.3
20210805123631 59 102 0.0 0.0 0.00 0.00 0.00 84 1012.3
20210805123130 59 102 0.0 0.0 0.00 0.00 0.00 84 1012.3
20210805122628 59 102 0.0 0.0 0.00 0.00 0.00 83 1012.3
20210805122126 59 102 0.0 0.0 0.00 0.00 0.00 84 1012.3
20210805121626 59 102 0.0 0.0 0.00 0.00 0.00 84 1012.3
20210805121128 59 102 0.0 0.0 0.00 0.00 0.00 84 1012.3
20210805120625 59 102 0.0 0.0 0.00 0.00 0.00 84 1012.2
20210805120124 59 102 0.0 0.0 0.00 0.00 0.00 84 1012.2
20210805115623 59 102 0.0 0.0 0.00 0.00 0.00 84 1012.2
20210805115122 59 102 0.0 1.0 0.00 0.00 0.00 84 1012.0
20210805114622 59 102 0.0 1.0 0.00 0.00 0.00 84 1012.2
20210805114123 59 102 0.0 1.0 0.00 0.00 0.00 84 1012.0
20210805113622 59 102 0.0 0.0 0.00 0.00 0.00 84 1012.0
20210805113123 59 102 0.0 0.0 0.00 0.00 0.00 84 1012.0
20210805112622 59 102 0.0 1.0 0.00 0.00 0.00 84 1012.0
20210805112122 59 102 0.0 1.0 0.00 0.00 0.00 84 1011.9
20210805111623 59 102 0.0 0.0 0.00 0.00 0.00 84 1011.9
20210805111122 59 102 0.0 0.0 0.00 0.00 0.00 84 1011.8
20210805110622 59 102 0.0 0.0 0.00 0.00 0.00 84 1011.8
20210805110122 59 102 0.0 0.0 0.00 0.00 0.00 84 1011.7
20210805105623 59 102 0.0 0.0 0.00 0.00 0.00 84 1011.7
20210805105122 59 102 0.0 0.0 0.00 0.00 0.00 84 1011.7
20210805104620 59 102 0.0 0.0 0.00 0.00 0.00 84 1011.7
20210805104120 59 102 0.0 0.0 0.00 0.00 0.00 84 1011.7
20210805103620 59 102 0.0 0.0 0.00 0.00 0.00 84 1011.7
20210805103122 60 102 0.0 0.0 0.00 0.00 0.00 83 1011.6
20210805102619 60 102 0.0 0.0 0.00 0.00 0.00 83 1011.6
20210805102118 60 102 0.0 0.0 0.00 0.00 0.00 83 1011.7
20210805101618 60 102 0.0 0.0 0.00 0.00 0.00 83 1011.8
20210805101119 60 102 0.0 0.0 0.00 0.00 0.00 83 1011.8
20210805100618 60 102 0.0 0.0 0.00 0.00 0.00 83 1011.9
20210805100118 60 102 0.0 0.0 0.00 0.00 0.00 83 1011.8
20210805095618 60 102 0.0 0.0 0.00 0.00 0.00 83 1011.8
20210805095118 60 102 0.0 0.0 0.00 0.00 0.00 83 1011.8
20210805094618 60 102 0.0 0.0 0.00 0.00 0.00 83 1011.8
20210805094118 60 102 0.0 0.0 0.00 0.00 0.00 83 1011.7
20210805093616 60 102 0.0 0.0 0.00 0.00 0.00 84 1011.8
20210805093116 61 102 0.0 0.0 0.00 0.00 0.00 84 1011.7
20210805092616 61 102 0.0 1.0 0.00 0.00 0.00 84 1011.7
20210805092116 61 102 0.0 1.0 0.00 0.00 0.00 84 1011.8
20210805091616 61 102 0.0 0.0 0.00 0.00 0.00 84 1011.8
20210805091118 61 102 0.0 1.0 0.00 0.00 0.00 85 1011.9
20210805090615 61 102 0.0 1.0 0.00 0.00 0.00 85 1011.8
20210805090116 61 102 0.0 0.0 0.00 0.00 0.00 85 1011.8
20210805085616 61 102 0.0 0.0 0.00 0.00 0.00 85 1011.9
20210805085116 61 102 0.0 0.0 0.00 0.00 0.00 85 1012.0
20210805084614 61 102 0.0 1.0 0.00 0.00 0.00 85 1011.9
20210805084114 61 102 0.0 1.0 0.00 0.00 0.00 85 1012.0
20210805083614 61 102 0.0 1.0 0.00 0.00 0.00 85 1012.0
20210805083114 61 102 0.0 2.0 0.00 0.00 0.00 85 1012.0
20210805082614 61 102 0.0 2.0 0.00 0.00 0.00 85 1012.0
20210805082113 61 102 0.0 3.0 0.00 0.00 0.00 85 1012.0
20210805081614 61 102 0.0 3.0 0.00 0.00 0.00 85 1011.9
20210805081114 61 102 0.0 1.0 0.00 0.00 0.00 85 1011.9
20210805080613 61 102 0.0 1.0 0.00 0.00 0.00 85 1012.0
20210805080114 60 102 0.0 1.0 0.00 0.00 0.00 85 1012.0
20210805075613 60 102 0.0 3.0 0.00 0.00 0.00 85 1012.0
20210805075114 60 102 0.0 3.0 0.00 0.00 0.00 84 1012.2
20210805074617 60 102 1.0 4.0 0.00 0.00 0.00 84 1012.0
20210805074113 60 102 1.0 4.0 0.00 0.00 0.00 83 1012.0
20210805073614 60 102 1.0 3.0 0.00 0.00 0.00 83 1011.9
20210805073113 60 102 0.0 2.0 0.00 0.00 0.00 83 1011.9
20210805072614 60 102 1.0 3.0 0.00 0.00 0.00 82 1011.9
20210805072114 60 102 0.0 3.0 0.00 0.00 0.00 81 1011.9
20210805071613 60 102 0.0 0.0 0.00 0.00 0.00 81 1011.9
20210805071112 60 102 0.0 0.0 0.00 0.00 0.00 81 1011.9
20210805070608 60 102 0.0 1.0 0.00 0.00 0.00 80 1011.9
20210805070109 60 102 0.0 1.0 0.00 0.00 0.00 80 1011.9
20210805065609 60 102 0.0 1.0 0.00 0.00 0.00 80 1012.0
20210805065109 60 102 0.0 0.0 0.00 0.00 0.00 80 1011.9
20210805064608 61 102 0.0 0.0 0.00 0.00 0.00 80 1012.0
20210805064108 61 102 0.0 0.0 0.00 0.00 0.00 79 1012.0
20210805063609 61 102 0.0 0.0 0.00 0.00 0.00 79 1012.0
20210805063109 61 102 0.0 0.0 0.00 0.00 0.00 78 1012.2
20210805062608 61 102 0.0 0.0 0.00 0.00 0.00 78 1012.0
20210805062108 61 102 0.0 0.0 0.00 0.00 0.00 78 1012.0
20210805061608 61 102 0.0 0.0 0.00 0.00 0.00 78 1012.0
20210805061106 62 102 0.0 0.0 0.00 0.00 0.00 78 1012.0
20210805060606 62 102 0.0 0.0 0.00 0.00 0.00 78 1012.2
20210805060104 62 102 0.0 0.0 0.00 0.00 0.00 77 1012.3
20210805055605 62 102 0.0 0.0 0.00 0.00 0.00 77 1012.2
20210805055104 62 102 0.0 0.0 0.00 0.00 0.00 77 1012.0
20210805054605 62 102 0.0 0.0 0.00 0.00 0.00 77 1012.0
20210805054104 62 102 0.0 0.0 0.00 0.00 0.00 77 1012.0
20210805053604 63 102 0.0 0.0 0.00 0.00 0.00 77 1012.0
20210805053104 63 102 0.0 1.0 0.00 0.00 0.00 77 1012.0
20210805052606 63 102 0.0 1.0 0.00 0.00 0.00 77 1012.0
20210805052103 63 102 0.0 1.0 0.00 0.00 0.00 77 1012.0
20210805051602 63 102 0.0 1.0 0.00 0.00 0.00 77 1012.0
20210805051100 63 102 0.0 2.0 0.00 0.00 0.00 78 1012.0
20210805050600 63 102 0.0 2.0 0.00 0.00 0.00 78 1011.9
20210805050100 64 102 0.0 2.0 0.00 0.00 0.00 78 1011.9
20210805045559 64 102 0.0 2.0 0.00 0.00 0.00 78 1011.8
20210805045057 64 102 0.0 3.0 0.00 0.00 0.00 78 1011.9
20210805044557 64 102 0.0 3.0 0.00 0.00 0.00 77 1011.9
20210805044056 64 102 0.0 1.0 0.00 0.00 0.00 76 1011.8
20210805043554 64 102 0.0 1.0 0.00 0.00 0.00 76 1011.7
20210805043052 64 102 0.0 0.0 0.00 0.00 0.00 75 1011.7
20210805042552 64 102 0.0 0.0 0.00 0.00 0.00 75 1011.6
20210805042052 65 102 0.0 1.0 0.00 0.00 0.00 75 1011.6
20210805041553 65 102 0.0 2.0 0.00 0.00 0.00 75 1011.6
20210805041053 65 102 0.0 2.0 0.00 0.00 0.00 75 1011.6
20210805040552 65 102 0.0 2.0 0.00 0.00 0.00 74 1011.4
20210805040052 65 102 0.0 1.0 0.00 0.00 0.00 74 1011.3
20210805035553 65 102 0.0 1.0 0.00 0.00 0.00 74 1011.2
20210805035052 66 102 0.0 1.0 0.00 0.00 0.00 74 1011.2
20210805034552 66 102 0.0 1.0 0.00 0.00 0.00 74 1011.2
20210805034053 66 102 0.0 1.0 0.00 0.00 0.00 73 1011.1
20210805033554 66 102 0.0 2.0 0.00 0.00 0.00 72 1011.0
20210805033051 67 102 0.0 2.0 0.00 0.00 0.00 72 1010.9
20210805032550 67 102 0.0 1.0 0.00 0.00 0.00 72 1010.9
20210805032050 67 102 0.0 1.0 0.00 0.00 0.00 71 1010.9
20210805031550 67 102 0.0 3.0 0.00 0.00 0.00 71 1010.9
20210805031050 67 102 1.0 3.0 0.00 0.00 0.00 70 1011.0
20210805030549 68 102 0.0 4.0 0.00 0.00 0.00 69 1010.9
20210805030051 68 131 1.0 4.0 0.00 0.00 0.00 69 1010.9
20210805025550 68 113 1.0 4.0 0.00 0.00 0.00 68 1010.9
20210805025048 69 109 1.0 4.0 0.00 0.00 0.00 68 1010.9
20210805024549 69 146 1.0 4.0 0.00 0.00 0.00 67 1010.9
20210805024048 69 136 1.0 8.0 0.00 0.00 0.00 67 1010.8
20210805023548 69 44 1.0 8.0 0.00 0.00 0.00 67 1010.8
20210805023048 70 116 1.0 5.0 0.00 0.00 0.00 67 1010.7
20210805022548 70 177 2.0 5.0 0.00 0.00 0.00 66 1010.6
20210805022048 71 73 2.0 7.0 0.00 0.00 0.00 66 1010.6
20210805021548 71 90 2.0 7.0 0.00 0.00 0.00 65 1010.6
20210805021048 71 109 1.0 6.0 0.00 0.00 0.00 65 1010.6
20210805020548 71 59 1.0 6.0 0.00 0.00 0.00 65 1010.5
20210805020048 72 106 2.0 9.0 0.00 0.00 0.00 65 1010.5
20210805015549 72 110 3.0 9.0 0.00 0.00 0.00 65 1010.4
20210805015047 72 162 2.0 8.0 0.00 0.00 0.00 64 1010.4
20210805014548 72 126 3.0 7.0 0.00 0.00 0.00 64 1010.3
20210805014048 73 153 2.0 7.0 0.00 0.00 0.00 63 1010.3
20210805013548 73 134 1.0 6.0 0.00 0.00 0.00 63 1010.2
20210805013045 73 50 1.0 6.0 0.00 0.00 0.00 62 1010.3
20210805012544 74 101 2.0 8.0 0.00 0.00 0.00 62 1010.3
20210805012044 74 123 2.0 8.0 0.00 0.00 0.00 61 1010.3
20210805011544 74 127 2.0 7.0 0.00 0.00 0.00 61 1010.3
20210805011043 75 211 2.0 6.0 0.00 0.00 0.00 60 1010.2
20210805010543 75 134 2.0 7.0 0.00 0.00 0.00 59 1010.4
20210805010043 76 134 2.0 7.0 0.00 0.00 0.00 58 1010.3
20210805005544 76 103 2.0 8.0 0.00 0.00 0.00 58 1010.4
20210805005043 76 163 2.0 8.0 0.00 0.00 0.00 56 1010.3
20210805004546 77 99 2.0 8.0 0.00 0.00 0.00 54 1010.4
20210805004044 78 134 3.0 9.0 0.00 0.00 0.00 53 1010.4
20210805003545 78 73 3.0 9.0 0.00 0.00 0.00 53 1010.5
20210805003045 79 117 3.0 9.0 0.00 0.00 0.00 52 1010.4
20210805002540 80 208 4.0 9.0 0.00 0.00 0.00 51 1010.3
20210805002038 81 113 3.0 10.0 0.00 0.00 0.00 50 1010.3
20210805001537 81 146 3.0 10.0 0.00 0.00 0.00 49 1010.3
20210805001037 82 149 2.0 8.0 0.00 0.00 0.00 49 1010.2
20210805000538 82 53 3.0 8.0 0.00 0.00 0.00 48 1010.2
20210805000038 83 109 3.0 8.0 0.00 0.00 0.00 48 1010.2
20210804235537 83 134 3.0 8.0 0.00 0.00 0.00 47 1010.3
20210804235036 84 38 2.0 8.0 0.00 0.00 0.00 47 1010.3
20210804234536 84 107 2.0 7.0 0.00 0.00 0.00 47 1010.3
20210804234035 84 121 3.0 8.0 0.00 0.00 0.00 47 1010.4
20210804233533 84 134 3.0 8.0 0.00 0.00 0.00 46 1010.4
20210804233035 85 140 3.0 13.0 0.00 0.00 0.00 44 1010.4
20210804232536 85 135 3.0 13.0 0.00 0.00 0.00 44 1010.4
20210804232034 85 161 2.0 6.0 0.00 0.00 0.00 45 1010.4
20210804231534 85 123 2.0 7.0 0.00 0.00 0.00 45 1010.4
20210804231034 85 136 2.0 7.0 0.00 0.00 0.00 43 1010.5
20210804230535 86 111 2.0 7.0 0.00 0.00 0.00 45 1010.4
20210804230034 86 125 3.0 8.0 0.00 0.00 0.00 44 1010.5
20210804225535 86 105 3.0 8.0 0.00 0.00 0.00 44 1010.5
20210804225035 86 74 2.0 8.0 0.00 0.00 0.00 45 1010.5
20210804224534 86 176 2.0 6.0 0.00 0.00 0.00 45 1010.5
20210804224034 86 58 3.0 7.0 0.00 0.00 0.00 44 1010.6
20210804223533 85 36 2.0 7.0 0.00 0.00 0.00 45 1010.6
20210804223034 85 103 2.0 6.0 0.00 0.00 0.00 45 1010.6
20210804222533 85 111 2.0 6.0 0.00 0.00 0.00 47 1010.7
20210804222034 85 120 2.0 6.0 0.00 0.00 0.00 46 1010.6
20210804221534 85 133 3.0 9.0 0.00 0.00 0.00 47 1010.8
20210804221034 85 123 3.0 9.0 0.00 0.00 0.00 47 1010.9
20210804220534 84 33 2.0 8.0 0.00 0.00 0.00 48 1010.9
20210804220033 84 45 2.0 8.0 0.00 0.00 0.00 48 1010.9
20210804215533 84 94 2.0 8.0 0.00 0.00 0.00 47 1011.0
20210804215034 84 131 3.0 9.0 0.00 0.00 0.00 49 1011.0
20210804214533 84 28 3.0 9.0 0.00 0.00 0.00 47 1011.1
20210804214034 83 121 3.0 14.0 0.00 0.00 0.00 49 1011.1
20210804213532 83 59 3.0 14.0 0.00 0.00 0.00 49 1011.2